Location: Newark
(45.2303°N, 123.8633°W)
Time: 08:42:59
(UTC+00:00)

X-37B - Visible Passes

Search period start: 01 October 2020 00:00
Search period end: 11 October 2020 00:00
Orbit: 386 x 387 km, 45.0° (Epoch: 18 September)

Date Brightness Start Highest point End Pass type
(mag) Time Alt. Az. Time Alt. Az. Time Alt. Az.
02 Oct 3.1 03:47:17 10° SSW 03:47:57 14° SSW 03:47:57 14° SSW visible
03 Oct 2.5 02:49:34 10° S 02:51:35 16° SSE 02:52:22 15° SE visible
03 Oct 3.8 04:24:39 10° WSW 04:24:40 10° WSW 04:24:40 10° WSW visible
04 Oct 1.4 03:26:17 10° SW 03:28:57 37° S 03:28:57 37° S visible
05 Oct 2.0 02:28:10 10° SSW 02:30:50 25° SSE 02:33:09 12° E visible
05 Oct 2.8 04:04:01 10° WSW 04:05:26 24° WSW 04:05:26 24° WSW visible
06 Oct 0.8 03:05:32 10° WSW 03:08:38 56° SSE 03:09:33 38° ESE visible
07 Oct 1.4 02:07:10 10° SW 02:10:09 38° SSE 02:13:08 10° E visible
07 Oct 1.5 03:43:27 10° W 03:45:52 48° W 03:45:52 48° W visible
08 Oct 0.6 02:44:53 10° WSW 02:48:04 75° S 02:49:52 23° E visible
08 Oct 3.7 04:21:30 10° W 04:22:08 15° W 04:22:08 15° W visible
09 Oct 0.4 03:22:55 10° W 03:26:06 89° S 03:26:07 89° SE visible
10 Oct 0.6 02:24:20 10° W 02:27:30 87° S 02:30:05 15° E visible
10 Oct 3.0 04:00:57 10° W 04:02:21 23° W 04:02:21 23° W visible
